Showing default

TOMORROW-S5, 63234

Orbit data source: Space-Track

TOMORROW-S5, 63234 is a payload satellite owned by Tomorrow.io (US) in SSO that was launched on Sat, 15 Mar 2025 UTC via an FALCON 9 launch vehicle from the Air Force Western Test Range (AFWTR). Payload-class satellites include a variety of spacecraft equipped with specific instruments for various scientific and technological missions. These include communications satellites like Starlink; space stations such as the ISS; scientific satellites like the Hubble; Earth observation satellites from companies like Planet Labs, Umbra, and HawkEye 360; GPS; miniature CubeSats for education and research; and military/defense satellites.

Loading next visibility...
Identifier
63234, 2025-052AA
Orbit
SSO
Country
Flag of USUS
Related business
Manufacturer
Blue Canyon
Mission
Operational Commercial Weather
Bus & Motor
CUBESAT 6U, Unknown motor
Mass
12 kg wet, 12 kg dry
Launch date (UTC)
2025-03-15 (1 year ago)
Launch vehicle
FALCON 9
Launch site
Air Force Western Test Range (AFWTR)
Object type
Payload
Rocket body
Debris
Shape & HBR
Box + 2 Pan, 1.0 m
Radar Cross Section
0.138 m², Medium (>0.1 m² and < 1m²)

Expand to show TLE details & history
Last TLE update: 6 hours ago

TLE from 6 hours ago
0 TOMORROW-S5
1 63234U 25052AA  26121.27037363  .00005741  00000-0  25419-3 0  9996
2 63234  97.4044  14.6944 0005739 330.7214  29.3700 15.22026492 62709
Epoch: 2026-05-01T06:29Z
TLE epoch observation values (Epoch: 2026-05-01T06:29:20.281Z)
Latitude
-0.00002°
Longitude
58.15486°
Altitude
499.382 km
Speed
7.617 km/s
True Right ascension
00h 58m 46s
True Declination
0° 00' 00"
Sunlit
Object was in daylight at epoch
Visualization orbit readout
Latitude
Unknown
Longitude
Unknown
Altitude
Unknown
Speed
Unknown
Apparent Right ascension
Unknown
Apparent Declination
Unknown
Sunlit
N/A
Visualization observer readout
Local Sidereal Time
20:34:29
Azimuth
Unknown
Elevation
Unknown
Doppler factor
Unknown
Orbital elements
Apogee altitude
500.637 km
Perigee altitude
492.746 km
Semi-major axis
6,874.829 km
Eccentricity
0.00057
Inclination
97.4044°
RAAN
14.6944°
Arg. of periapsis
330.7214°
True anomaly
29.40227°
Mean anomaly
29.37°
Eccentric anomaly
29.38613°
Mean motion
3.80759 °/min
Orbital period
94.55 mins
BSTAR
0.00025419
Loading maneuver chart data...
Computing Atmospheric mass density...
Loading historical data...
Loading historical data...
Loading historical data...
Loading historical data...
Loading historical data...
Loading historical data...
Loading historical data...

Documentation

Showing up to 5 results
|